[Iaude] MPEC D140: 2009 KW36 [a=41.11,e=0.01,i=27.9,H=8.60]
    mpec at cfa.harvard.edu 
    mpec at cfa.harvard.edu
       
    Thu Feb 29 08:33:44 EST 2024
    
    
  
M.P.E.C. 2024-D140                            Issued 2024 February 29, 13:31 UT
     The Minor Planet Electronic Circulars contain information on unusual
         minor planets, routine data on comets and natural satellites,
         and occasional editorial announcements.  They are published
    on behalf of Division F of the International Astronomical Union by the
          Minor Planet Center, Smithsonian Astrophysical Observatory,
                          Cambridge, MA 02138, U.S.A.
			  
             Prepared using the Tamkin Foundation Computer Network
                              MPC at CFA.HARVARD.EDU
            URL https://www.minorplanetcenter.net/    ISSN 1523-6714
                                   2009 KW36                                    
Additional Observations:
     K09K36W 5C2010 04 12.37331112 21 54.90 +10 17 14.3          24.6 gWED140T14
     K09K36W 5C2010 04 13.31870612 21 50.47 +10 17 30.2                WED140T14
     K09K36W 5C2010 04 13.37616812 21 50.19 +10 17 31.1          24.7 gWED140T14
     K09K36W 5C2010 04 13.43385212 21 49.92 +10 17 32.1                WED140T14
     K09K36W 5C2010 04 14.33567912 21 45.76 +10 17 47.3          24.5 gWED140T14
     K09K36W 5C2010 04 14.41071812 21 45.40 +10 17 48.4                WED140T14
     K09K36W 5C2012 04 13.47978212 29 09.10 +08 09 51.4          24.0 rWED140T14
     K09K36W 4C2017 04 02.40315 12 48 14.81 +02 43 37.4          24.1 r1ED140T09
     K09K36W 4C2017 04 02.42800 12 48 14.69 +02 43 38.1          24.2 r1ED140T09
     K09K36W 4C2017 04 02.50262 12 48 14.33 +02 43 39.9          24.7 r1ED140T09
     K09K36W 4C2017 04 02.50471 12 48 14.30 +02 43 39.8          24.8 r1ED140T09
     K09K36W 5C2017 07 20.27029712 44 13.45 +02 42 23.9          23.8 rWED140T14
     K09K36W 4C2019 04 06.38392 12 55 11.22 +00 35 44.0          24.4 i1ED140T09
     K09K36W 4C2019 04 06.41638 12 55 11.06 +00 35 45.1          24.2 i1ED140T09
     K09K36W 4C2019 04 06.43318 12 55 10.97 +00 35 45.2          24.5 i1ED140T09
     K09K36W 4C2019 04 06.52853 12 55 10.50 +00 35 47.7          24.2 i1ED140T09
Observer details:
T09 Subaru Telescope, Maunakea.  Observers H. Aihara, Y. AlSayyad, M. Ando, R.
    Armstrong, J. Bosch, E. Egami, H. Furusawa, J. Furusawa, S. Harasawa, Y.
    Harikane, B.-C. Hsieh, H. Ikeda, K. Ito, I. Iwata, T. Kodama, M. Koike, M.
    Kokubo, Y. Komiyama, X. Li, Y. Liang, Y.-T. Lin, R. H. Lupton, N. B. Lust,
    L. A. MacArthur, K. Mawatari, S. Mineo, H. Miyatake, S. Miyazaki, S. More,
    T. Morishima, H. Murayama, K. Nakajima, F. Nakata, A. J. Nishizawa, M.
    Oguri, N. Okabe, Y. Okura, Y. Ono, K. Osato, M. Ouchi, Y.-C. Pan, A. A.
    Plazas Malagon, P. A. Price, S. L. Reed, E. S. Rykoff, T. Shibuya, M.
    Simunovic, M. A. Strauss, K. Sugimori, Y. Suto, N. Suzuki, M. Takada, Y.
    Takagi, T. Takata, S. Takita, M. Tanaka, S. Tang, D. S. Taranu, T. Terai,
    Y. Toba, E. L. Turner, H. Uchiyama, B. Vijarnwannaluk, C. Z. Waters, Y.
    Yamada, N. Yamamoto, T. Yamashita.  Measurers A. Sasaki, M. Higano.  8.2-m
    f/2.0 reflector + CCD(HSC).
T14 Canada-France-Hawaii Telescope, Maunakea.  Observers Y. Chen, L.
    Ferrarese.  Measurer S. Deen.  3.58-m Canada-France-Hawaii Telescope +
    CCD.
Orbital elements:
2009 KW36                                                                       
Epoch 2024 Mar. 31.0 TT = JDT 2460400.5                 Alexandersen            
M  96.53882              (2000.0)            P               Q                  
n   0.00373930     Peri.   76.93846     -0.13895684     -0.97223994             
a  41.1095056      Node    23.69722     +0.62488329     -0.23355966             
e   0.0066883      Incl.   27.93129     +0.76825248     +0.01412054             
P 264              H    8.60          G   0.15           U   5                  
Residuals in seconds of arc
090527 568  0.0   0.0     090624 568  0.0   0.1-    170402 T09  0.0   0.1+
090527 568  0.1-  0.0     100412 T14  0.2+  0.2+    170402 T09  0.1+  0.1+
090527 568  0.0   0.0     100413 T14  0.1-  0.0     170402 T09  0.2-  0.0
090528 568  0.1+  0.0     100413 T14  0.2-  0.1-    170720 T14  0.0   0.1-
090528 568  0.0   0.1-    100413 T14  0.1-  0.1-    190406 T09  0.0   0.2-
090529 568  0.1-  0.1+    100414 T14  0.1+  0.2+    190406 T09  0.0   0.1+
090622 568  0.1+  0.0     100414 T14  0.0   0.1+    190406 T09  0.1-  0.2-
090624 568  0.2+  0.1-    120413 T14  0.3+  0.1+    190406 T09  0.1-  0.1+
090624 568  0.1-  0.0     170402 T09  0.0   0.0
Ephemeris:
2009 KW36                a,e,i = 41.11, 0.01, 28                 q = 40.8346
Date    TT    R. A. (2000) Decl.     Delta      r    Elong.  Phase     V
2024 01 30    13 17 00.5 -05 05 12  40.8020 41.1416   109.5     1.3    24.9
...
2024 02 14    13 16 33.9 -05 03 11  40.5701 41.1418   124.8     1.1    24.9
...
2024 02 22    13 16 12.1 -05 01 24  40.4615 41.1420   133.0     1.0    24.9
...
2024 02 28    13 15 52.7 -04 59 48  40.3887 41.1421   139.1     0.9    24.8
2024 02 29    13 15 49.2 -04 59 30  40.3774 41.1421   140.1     0.9    24.8
2024 03 01    13 15 45.6 -04 59 13  40.3662 41.1421   141.1     0.9    24.8
...
2024 03 07    13 15 23.1 -04 57 21  40.3046 41.1422   147.2     0.7    24.8
...
2024 03 15    13 14 50.0 -04 54 36  40.2368 41.1423   155.3     0.6    24.8
...
2024 03 30    13 13 41.2 -04 49 00  40.1581 41.1426   170.2     0.2    24.8
M. P. C. Staff               (C) Copyright 2024 MPC           M.P.E.C. 2024-D140
    
    
More information about the Iaude
mailing list